Prescott, AZ

3:42 AM MST on November 15, 2019 (GMT -0700)
Love

Weather History for KPRC - May, 2019

Change the Weather History Date:

Sunday, May 26, 2019

  Actual Average Record
Temperature  
Mean Temperature 57 °F 65 °F  
Max Temperature 67 °F 80 °F 97 °F (1951)
Min Temperature 47 °F 49 °F 33 °F (1996)
Degree Days  
Heating Degree Days 8    
Month to date heating degree days 241  
Since 1 July heating degree days 4290  
Cooling Degree Days 0    
Month to date cooling degree days 0  
Year to date cooling degree days 1  
Growing Degree Days 7 (Base 50)    
Moisture  
Dew Point 29 °F    
Average Humidity 33    
Maximum Humidity 47    
Minimum Humidity 20    
Precipitation  
Precipitation T in 0.02 in 0.18 in (1992)
Month to date precipitation 1.13 0.39  
Year to date precipitation 6.65 4.47  
Sea Level Pressure  
Sea Level Pressure 29.73 in    
Wind  
Wind Speed 10 mph ()    
Max Wind Speed 28 mph    
Max Gust Speed 38 mph    
Visibility 10.0 miles    
Events      
T = Trace of Precipitation, MM = Missing Value Source: Averaged Metar Reports

Daily Weather History Graph

Daily Weather History Graph

Search for Another Location

Airport or City:

Astronomy

May. 26, 2019 Rise Set
Actual Time 5:20 AM MST 7:33 PM MST
Civil Twilight 4:51 AM MST 8:02 PM MST
Nautical Twilight 4:16 AM MST 8:37 PM MST
Astronomical Twilight 3:38 AM MST 9:15 PM MST
Moon 1:13 AM MST (5/26) 12:15 PM MST (5/26)
Length of Visible Light 15h 10m
Length of Day
14h 13m
Waning Gibbous, 49% of the Moon is Illuminated
May 26
Waning Gibbous
Jun 3
New
Jun 9
First Quarter
Jun 17
Full
Jun 25
Last Quarter

Hourly Weather History & Observations

Time (MST) Temp. Dew Point Humidity Pressure Visibility Wind Dir Wind Speed Gust Speed Precip Events Conditions
12:53 AM 51.1 °F 24.1 °F 35% 29.73 in 10.0 mi South 6.9 mph - N/A   Clear
1:53 AM 48.0 °F 25.0 °F 41% 29.73 in 10.0 mi SSW 5.8 mph - N/A   Clear
2:53 AM 50.0 °F 26.1 °F 39% 29.70 in 10.0 mi Variable 3.5 mph - N/A   Clear
3:53 AM 54.0 °F 23.0 °F 30% 29.69 in 10.0 mi ESE 5.8 mph - N/A   Clear
4:53 AM 51.1 °F 23.0 °F 33% 29.70 in 10.0 mi SSE 8.1 mph - N/A   Clear
5:53 AM 55.0 °F 16.0 °F 22% 29.70 in 10.0 mi South 11.5 mph - N/A   Clear
6:53 AM 55.0 °F 19.9 °F 25% 29.72 in 10.0 mi South 5.8 mph - N/A   Clear
7:53 AM 59.0 °F 23.0 °F 25% 29.72 in 10.0 mi South 13.8 mph 23.0 mph N/A   Clear
8:53 AM 61.0 °F 24.1 °F 24% 29.74 in 10.0 mi SSW 17.3 mph 29.9 mph N/A   Clear
9:53 AM 61.0 °F 28.9 °F 30% 29.75 in 10.0 mi South 24.2 mph 38.0 mph N/A   Scattered Clouds
10:53 AM 64.9 °F 28.9 °F 26% 29.75 in 10.0 mi SSW 20.7 mph 33.4 mph N/A   Clear
11:53 AM 64.9 °F 28.9 °F 26% 29.75 in 10.0 mi South 16.1 mph 29.9 mph N/A   Scattered Clouds
12:53 PM 64.9 °F 30.0 °F 27% 29.74 in 10.0 mi SSW 15.0 mph 26.5 mph N/A   Scattered Clouds
1:53 PM 66.0 °F 30.9 °F 27% 29.74 in 10.0 mi SSW 20.7 mph 28.8 mph N/A   Scattered Clouds
2:53 PM 64.9 °F 34.0 °F 32% 29.74 in 10.0 mi SW 23.0 mph 31.1 mph N/A   Scattered Clouds
3:53 PM 64.9 °F 35.1 °F 33% 29.73 in 10.0 mi SSW 19.6 mph 31.1 mph N/A   Mostly Cloudy
4:53 PM 64.0 °F 33.1 °F 31% 29.74 in 10.0 mi SSW 13.8 mph 23.0 mph N/A   Scattered Clouds
5:53 PM 60.1 °F 33.1 °F 36% 29.73 in 10.0 mi SSW 23.0 mph 28.8 mph N/A   Clear
6:53 PM 59.0 °F 33.1 °F 38% 29.74 in 10.0 mi SSW 12.7 mph 25.3 mph N/A   Mostly Cloudy
7:53 PM 57.9 °F 37.9 °F 47% 29.72 in 10.0 mi SSW 11.5 mph - N/A   Mostly Cloudy
8:53 PM 57.0 °F 33.1 °F 40% 29.73 in 10.0 mi SSW 12.7 mph 23.0 mph N/A   Overcast
9:53 PM 55.9 °F 35.1 °F 45% 29.73 in 10.0 mi South 10.4 mph - 0.00 in   Mostly Cloudy
10:53 PM 55.0 °F 33.1 °F 43% 29.73 in 10.0 mi SSW 10.4 mph - N/A   Overcast
11:53 PM 54.0 °F 32.0 °F 43% 29.70 in 10.0 mi SSW 16.1 mph 24.2 mph N/A   Mostly Cloudy